sat.trackr.live / text

‹ back to catalog

STARLINK-11514 [DTC]

NORAD 62514 · 2025-004D

PAYLOAD ACTIVE UNKNOWN

§ Identity

Operator
Country
US
Launch date
2025-01-08
Launch site
AFETR
Launch vehicle
Mass (kg)
RCS (m²)

Purposes: comms

External: N2YO · Heavens-Above · Gunter

§ Orbital elements

Epoch: 2026-05-24T21:19:28.672320Z

Period
91.67 min
Inclination
43.0014°
Eccentricity
0.0002264
Mean motion
15.70841502 rev/d
Perigee alt
355.0 km
Apogee alt
358.0 km
Semi-major
6,734.6 km
B*
1.4978e-3
RAAN
331.3378°
Arg perigee
278.2628°
Mean anomaly
81.7983°
Rev number
7,919

§ Raw data

STARLINK-11514 [DTC]1 62514U 25004D   26144.88852630  .00196364  00000+0  14978-2 0  99952 62514  43.0014 331.3378 0002264 278.2628  81.7983 15.70841502 79194

JSON: /api/v1/satellites/62514 · /tle

For live sub-satellite position, see the globe view (requires WebGL).

§ Visibility from observer

Set your observer location to see the next 7 days of passes ≥ 10°. The values pass through the URL so the page stays shareable.

No JS? Fill the form by hand. The geolocation button needs JavaScript.